Location: Borbetomagus
(49.6328°N, 8.3592°E)
Time: 20:37:04
(UTC+00:00)

Cosmos 1238 Rocket - Pass Details

Date: 19 May 2025
Orbit: 356 x 778 km, 82.9° (Epoch: 15 June)

Event Time Altitude Azimuth Distance (km) Brightness Sun altitude
Exits shadow 21:22:46 26° 187° (S) 1,006 3.7 -15.5°
Maximum altitude 21:24:45 88° 96° (E) 471 2.4 -15.6°
Drops below altitude 10° 21:28:04 10° 10° (N) 1,531 5.9 -15.9°
Sets 21:29:59 0° 10° (N) 2,348 6.9 -16.0°
